Flag for Germany Weather past 2 weeks in Meerbusch, North Rhine-Westphalia, Germany

34 °F


Feels Like: 25 °F
Forecast: 41 / 46 °F
Wind: 13 mph from Southeast

Location: Duesseldorf

Current Time: Nov 27, 2015 at 8:15:32 AM

Latest Report: Nov 27, 2015 at 7:20 AM

Visibility: 1 mi

Pressure: 30.09 "Hg

Humidity: 100%

Dew point: 34 °F

Location of MeerbuschLocation

Historic Weather in Meerbusch — Graph


Meerbusch temperature yesterday

Maximum temperature yesterday: 48 °F (at 2:50 PM)
Minimum temperature yesterday: 34 °F (at 8:20 AM)
Average temperature yesterday: 39 °F

Past Weeks' High & Low Weather Summary

High61 °F (Nov 15, 11:50 AM)100% (Nov 14, 10:50 PM)30.30 "Hg (Nov 14, 10:50 PM)
Low32 °F (Nov 22, 7:20 AM)59% (Nov 18, 3:20 AM)29.39 "Hg (Nov 21, 7:20 AM)
Average47 °F83%29.92 "Hg
* Reported Nov 12 7:20 AM — Nov 27 6:50 AM, Meerbusch, Weather by CustomWeather, © 2015

Note: Actual official high and low records may vary slightly from our data, if they occured in-between our weather recording intervals... More about our weather records


Meerbusch weather history for previous 24 hours

Time TempWeatherWind HumidityBarometerVisibility
6:50 AM
Fri, Nov 27
34 °FFog.10 mph100%30.09 "Hg1 mi
6:20 AM34 °FFog.9 mph100%30.09 "Hg1 mi
5:50 AM34 °FPassing clouds.14 mph100%30.12 "Hg4 mi
5:20 AM34 °FPassing clouds.13 mph100%30.12 "Hg4 mi
4:50 AM34 °FClear.14 mph100%30.12 "Hg5 mi
4:20 AM34 °FClear.12 mph100%30.12 "Hg5 mi
3:50 AM34 °FClear.9 mph100%30.15 "Hg5 mi
3:20 AM34 °FClear.6 mph100%30.15 "Hg6 mi
2:50 AM36 °FClear.9 mph93%30.15 "Hg6 mi
2:20 AM36 °FClear.12 mph93%30.15 "Hg6 mi
1:50 AM36 °FClear.12 mph93%30.15 "Hg6 mi
1:20 AM36 °FClear.10 mph93%30.15 "Hg6 mi
12:50 AM36 °FClear.8 mph93%30.18 "Hg10 mi
12:20 AM36 °FClear.9 mph93%30.15 "Hg10 mi
11:50 PM
Thu, Nov 26
34 °FClear.9 mph100%30.18 "Hg10 mi
11:20 PM36 °FClear.7 mph93%30.18 "Hg10 mi
10:50 PM36 °FClear.8 mph93%30.15 "Hg10 mi
10:20 PM34 °FClear.7 mph100%30.18 "Hg10 mi
9:50 PM36 °FClear.8 mph93%30.18 "Hg10 mi
9:20 PM36 °FPassing clouds.5 mph100%30.18 "HgN/A
8:50 PM36 °FClear.3 mph93%30.18 "Hg10 mi
8:20 PM36 °FClear.2 mph100%30.15 "Hg10 mi
7:50 PM37 °FClear.2 mph93%30.15 "Hg10 mi
7:20 PM37 °FPassing clouds.3 mph93%30.15 "HgN/A
6:50 PM37 °FPassing clouds.No wind93%30.15 "HgN/A
6:20 PM37 °FPassing clouds.No wind93%30.12 "HgN/A
5:50 PM39 °FPassing clouds.No wind93%30.12 "HgN/A
5:20 PM39 °FPassing clouds.3 mph93%30.12 "HgN/A
4:50 PM43 °FPassing clouds.5 mph81%30.09 "HgN/A
4:20 PM45 °FPassing clouds.5 mph81%30.09 "HgN/A
3:50 PM46 °FPassing clouds.5 mph71%30.09 "HgN/A
3:20 PM48 °FScattered clouds.5 mph66%30.09 "HgN/A
2:50 PM48 °FScattered clouds.5 mph71%30.07 "HgN/A
2:20 PM46 °FScattered clouds.5 mph76%30.07 "HgN/A
1:50 PM46 °FPassing clouds.2 mph76%30.07 "HgN/A
1:20 PM46 °FPassing clouds.2 mph76%30.07 "HgN/A
12:50 PM46 °FPassing clouds.2 mph76%30.07 "HgN/A
12:20 PM45 °FPassing clouds.No wind76%30.07 "HgN/A
11:50 AM45 °FPassing clouds.3 mph76%30.07 "HgN/A
11:20 AM43 °FPassing clouds.3 mph81%30.04 "HgN/A
10:50 AM43 °FPassing clouds.1 mph81%30.04 "HgN/A
10:20 AM41 °FPassing clouds.No wind87%30.01 "HgN/A
9:50 AM37 °FPassing clouds.No wind93%30.01 "HgN/A
9:20 AM36 °FFog.No wind93%30.01 "HgN/A
8:50 AM34 °FFog.No wind100%29.98 "HgN/A
8:20 AM34 °FFog.2 mph93%29.98 "HgN/A
Weather by CustomWeather, © 2015

See weather overviewHow to use our weather pages